User: anonymous   Login
Location: Eyeline Observatory
(43.2182°N, 78.8632°W)
Time: 05:08:20
(UTC-04:00)
Language:

OTV 5 (USA 277) - Orbit

View from above orbital plane
View from above orbital plane
View from above satellite
View from above satellite

Ground track
Ground track

The orbit data is extracted from the following two-line orbital elements,

1 42932U 17052A   18167.90617596 0.00000000  00000-0  00000-0 0    04
2 42932  54.5215 180.1076 0005291   7.2762 352.7237 15.84802187    01
Epoch (UTC): 16 June 2018 21:44:53
Eccentricity: 0.0005291
inclination: 54.5215°
perigee height: 313 km
apogee height: 320 km
right ascension of ascending node: 180.1076°
argument of perigee: 7.2762°
revolutions per day: 15.84802187
mean anomaly at epoch: 352.7237°
orbit number at epoch: 0

The dashed part of the orbit path shows where the satellite is in the earth's shadow,  

DLR